This is the latest recevied weather packets stored in our database for station/object SQ7IQO. If no packets are shown the sender has not sent any weather packets the latest 10 day(s).
| Time | Temp. | Humidity | Pressure | Rain* | Wind** | Luminosity | Snow |
|---|---|---|---|---|---|---|---|
| 1787576935 | 18.33° C | 76% | 1022.7 hPa | 0 mm | 0.45 m/s, ° | - | - |
| 1787576875 | 18.89° C | 75% | 1022.7 hPa | 0 mm | 1.34 m/s, ° | - | - |
| 1787576815 | 18.33° C | 75% | 1022.7 hPa | 0 mm | 0 m/s | - | - |
| 1787576755 | 18.33° C | 77% | 1022.6 hPa | 0 mm | 0.89 m/s, ° | - | - |
| 1787576695 | 17.78° C | 76% | 1022.6 hPa | 0 mm | 0 m/s | - | - |
| 1787576635 | 17.22° C | 77% | 1022.7 hPa | 0 mm | 0.89 m/s, ° | - | - |
| 1787576575 | 18.33° C | 74% | 1022.7 hPa | 0 mm | 1.79 m/s, ° | - | - |
| 1787576515 | 18.89° C | 75% | 1022.6 hPa | 0 mm | 1.34 m/s, ° | - | - |
| 1787576455 | 18.33° C | 75% | 1022.6 hPa | 0 mm | 0 m/s | - | - |
| 1787576395 | 18.33° C | 77% | 1022.6 hPa | 0 mm | 0.45 m/s, ° | - | - |
| 1787576335 | 18.33° C | 76% | 1022.6 hPa | 0 mm | 0.45 m/s, ° | - | - |
| 1787576275 | 18.33° C | 79% | 1022.7 hPa | 0 mm | 1.34 m/s, ° | - | - |
| 1787576215 | 17.78° C | 77% | 1022.7 hPa | 0 mm | 0 m/s | - | - |
| 1787576155 | 17.78° C | 76% | 1022.7 hPa | 0 mm | 0.89 m/s, ° | - | - |
| 1787576095 | 17.78° C | 79% | 1022.7 hPa | 0 mm | 1.34 m/s, ° | - | - |
| 1787576035 | 17.78° C | 79% | 1022.7 hPa | 0 mm | 0.45 m/s, ° | - | - |
| 1787575975 | 18.33° C | 78% | 1022.7 hPa | 0 mm | 0.89 m/s, ° | - | - |
| 1787575915 | 18.33° C | 79% | 1022.7 hPa | 0 mm | 0.45 m/s, ° | - | - |
| 1787575855 | 17.78° C | 81% | 1022.7 hPa | 0 mm | 0 m/s | - | - |
| 1787575795 | 17.78° C | 81% | 1022.7 hPa | 0 mm | 0 m/s | - | - |
| 1787575735 | 17.22° C | 80% | 1022.7 hPa | 16.76 mm | 0.45 m/s, ° | - | - |
| 1787575675 | 16.67° C | 83% | 1022.7 hPa | 16.76 mm | 0.45 m/s, ° | - | - |
| 1787575615 | 16.67° C | 81% | 1022.6 hPa | 16.76 mm | 0.89 m/s, ° | - | - |
| 1787575555 | 16.67° C | 83% | 1022.7 hPa | 16.76 mm | 0.89 m/s, ° | - | - |
| 1787575495 | 16.67° C | 80% | 1022.7 hPa | 16.76 mm | 1.34 m/s, ° | - | - |
* Rain latest hour (hover to see other rain measurements)
** Current wind speed in m/s (hover to see current wind gust speed)